[[{"header":{"parameterUnit":"m.s-1","parameterCategory":1,"la1":30.2991,"la2":30.254,"lo1":-89.0895,"lo2":-89.0444,"dx":0.0017,"dy":0.0017,"nx":28,"ny":28,"refTime":"2022-12-16T09:00:00:Z","depth":0,"parameterNumber":2,"parameterNumberName":"U-component_of_WINDS"},"data":[0,0,0,0,0,0,0,0,0,0,0,0,0,0,0,0,0,0,0,0,0,0,0,0,0,0,0,0,0,0,0,0,0,0,0,0,0,0,0,0,0,0,0,0,0,0,0,0,0,0,0,0,0,0,0,0,0,0,-0.293,-0.2931,0,-0.2978,-0.2979,-0.2979,-0.2951,-0.295,-0.2948,-0.2947,-0.2998,-0.3001,-0.3004,0,0,0,0,0,0,0,0,0,0,0,0,0,-0.2816,-0.2819,-0.293,-0.2931,-0.2931,-0.2978,-0.2979,-0.2979,-0.2951,-0.295,-0.2948,-0.2946,-0.2998,-0.3001,-0.3004,0,0,0,0,0,0,0,0,0,0,0,0,0,-0.2865,-0.2819,-0.293,-0.2923,-0.2923,-0.2978,-0.2979,-0.298,-0.2952,-0.295,-0.2947,-0.2946,-0.2996,-0.3,-0.3004,-0.307,0,0,-0.3016,-0.3018,0,0,0,0,0,0,0,0,-0.2863,-0.287,-0.2923,-0.2923,-0.2923,-0.2956,-0.2957,-0.301,-0.2952,-0.2941,-0.2947,-0.2945,-0.2986,-0.2991,-0.3005,-0.3072,-0.3075,-0.3017,-0.3019,-0.3021,-0.3022,0,0,0,0,0,0,0,-0.2859,-0.2867,-0.2949,-0.2924,-0.2924,-0.2918,-0.2923,-0.2967,-0.2975,-0.2942,-0.294,-0.2946,-0.2986,-0.3001,-0.3006,-0.3075,-0.3017,-0.302,-0.3023,-0.3024,-0.3201,-0.3203,0,0,0,0,0,0,-0.2856,-0.2865,-0.2948,-0.2951,-0.2887,-0.2922,-0.2927,-0.2948,-0.2974,-0.2976,-0.2947,-0.2944,-0.2995,-0.3001,-0.3007,-0.3087,-0.3021,-0.3025,-0.3027,-0.3199,-0.3201,-0.3204,0,0,0,0,0,0,-0.2854,-0.2864,-0.2946,-0.2907,-0.2917,-0.2926,-0.295,-0.295,-0.2965,-0.2978,-0.298,-0.2961,-0.2994,-0.3002,-0.3055,-0.3089,-0.3026,-0.303,-0.3196,-0.32,-0.3203,-0.3247,0,0,0,0,0,0,-0.2851,-0.2863,-0.2888,-0.2908,-0.2919,-0.2992,-0.2952,-0.2952,-0.2972,-0.2968,-0.2992,-0.2994,-0.2993,-0.3049,-0.3059,-0.3093,-0.3033,-0.3193,-0.3198,-0.3202,-0.3243,-0.3252,-0.326,0,0,0,0,0,-0.2847,-0.2898,-0.2889,-0.2899,-0.295,-0.2994,-0.3001,-0.2998,-0.2974,-0.3,-0.3008,-0.2993,-0.3083,-0.3055,-0.3065,-0.3101,-0.3191,-0.3196,-0.3201,-0.3239,-0.325,-0.3259,0,0,0,0,0,0,-0.2883,-0.2901,-0.2891,-0.295,-0.2971,-0.2989,-0.3021,-0.3009,-0.3037,-0.3033,-0.3029,-0.3034,-0.309,-0.3101,-0.3069,-0.3167,-0.3133,-0.3141,-0.3158,-0.3169,-0.3177,-0.3174,-0.3036,0,0,0,0,0,-0.2897,-0.2931,-0.2945,-0.2997,-0.3007,-0.3012,-0.3031,-0.3027,-0.3049,-0.3057,-0.307,-0.3092,-0.3125,-0.3147,-0.3178,-0.3243,-0.3249,-0.3274,-0.3282,-0.3289,-0.3296,-0.3333,-0.3344,-0.3221,-0.3221,-0.3221,0,0,-0.2929,-0.2943,-0.2964,-0.3004,-0.302,-0.3055,-0.302,-0.3059,-0.3086,-0.3063,-0.3115,-0.3125,-0.3149,-0.3209,-0.3235,-0.3219,-0.3331,-0.3295,-0.3301,-0.3304,-0.3339,-0.3351,-0.3361,-0.3225,-0.3224,-0.3223,0,0,-0.3004,-0.3017,-0.3063,-0.3078,-0.3102,-0.3105,-0.3116,-0.3136,-0.3141,-0.3192,-0.3177,-0.3209,-0.3266,-0.3284,-0.3301,-0.3383,-0.3371,-0.3393,-0.3438,-0.3474,-0.3483,-0.3492,-0.3523,-0.3534,-0.34,-0.34,-0.34,0,-0.3041,-0.3093,-0.3087,-0.3128,-0.3147,-0.3127,-0.3173,-0.3189,-0.3222,-0.3236,-0.3216,-0.3288,-0.3303,-0.3367,-0.3388,-0.3401,-0.3414,-0.3392,-0.3482,-0.3491,-0.3499,-0.3529,-0.354,-0.3403,-0.3403,-0.3402,-0.3402,0,-0.3138,-0.3174,-0.3208,-0.324,-0.3262,-0.3305,-0.3307,-0.333,-0.3324,-0.3329,-0.3382,-0.3399,-0.3434,-0.3448,-0.3443,-0.3512,-0.3502,-0.3482,-0.3449,-0.3513,-0.3542,-0.3553,-0.3407,-0.3406,-0.3405,-0.3404,0,0,-0.3239,-0.3266,-0.3279,-0.3294,-0.3318,-0.3347,-0.3389,-0.3423,-0.3444,-0.3466,-0.3503,-0.3552,-0.3534,-0.3553,-0.3549,-0.358,-0.3647,-0.3557,-0.3558,-0.3575,-0.3727,-0.3743,-0.3756,-0.3638,-0.364,-0.3641,-0.3726,0,-0.3318,-0.3392,-0.3388,-0.3458,-0.3492,-0.3474,-0.3511,-0.353,-0.3536,-0.3567,-0.3574,-0.3609,-0.3582,-0.3594,-0.3623,-0.3633,-0.3678,-0.3626,-0.3674,-0.3675,-0.3671,-0.3771,-0.3788,-0.3866,-0.3736,-0.3738,-0.3739,0,-0.342,-0.3446,-0.3519,-0.3539,-0.3554,-0.3587,-0.3618,-0.3647,-0.3669,-0.3671,-0.3692,-0.3683,-0.3728,-0.3691,-0.3753,-0.3718,-0.3737,-0.3744,-0.3747,-0.3753,-0.3713,-0.3782,-0.3891,-0.3904,-0.3756,-0.3755,-0.3754,0,-0.3489,-0.3542,-0.3594,-0.3606,-0.363,-0.3654,-0.3666,-0.3685,-0.3706,-0.3733,-0.3746,-0.3778,-0.3796,-0.3821,-0.3822,-0.3795,-0.3885,-0.3848,-0.3889,-0.389,-0.3911,-0.391,-0.4028,-0.3919,-0.3919,-0.3919,-0.3919,0,-0.3579,-0.3625,-0.3625,-0.3657,-0.3708,-0.3703,-0.3755,-0.3763,-0.3781,-0.3815,-0.38,-0.3832,-0.3829,-0.3862,-0.3863,-0.3915,-0.3922,-0.3927,-0.3927,-0.3929,-0.3929,-0.3943,-0.3939,-0.3922,-0.3921,-0.3921,-0.392,0,-0.3666,-0.3668,-0.3723,-0.374,-0.3746,-0.3783,-0.3799,-0.3829,-0.3833,-0.3877,-0.3886,-0.3893,-0.3931,-0.3933,-0.3977,-0.3977,-0.4041,-0.4034,-0.4034,-0.4034,-0.4076,-0.4073,-0.4208,-0.4227,-0.4104,-0.4106,-0.4107,0,-0.3724,-0.3759,-0.3781,-0.3802,-0.3815,-0.3849,-0.387,-0.3866,-0.3889,-0.3916,-0.3944,-0.398,-0.4009,-0.4071,-0.408,-0.4114,-0.4109,-0.4154,-0.4114,-0.4116,-0.4112,-0.4111,-0.4116,-0.4163,-0.4164,-0.4165,-0.4166,0,-0.3829,-0.3828,-0.3858,-0.3889,-0.3915,-0.3939,-0.3962,-0.398,-0.3979,-0.4005,-0.4043,-0.4066,-0.411,-0.4147,-0.418,-0.4192,-0.418,-0.4178,-0.419,-0.4194,-0.4194,-0.4197,-0.4058,-0.4176,-0.4175,-0.4174,-0.4173,-0.4173,-0.3905,-0.3936,-0.3956,-0.399,-0.4007,-0.4028,-0.4058,-0.4066,-0.4098,-0.4133,-0.4129,-0.4172,-0.4193,-0.4236,-0.4251,-0.4285,-0.427,-0.4286,-0.4291,-0.4296,-0.4301,-0.4186,-0.4291,-0.429,-0.429,-0.429,-0.429,0,-0.401,-0.4022,-0.4054,-0.4086,-0.4113,-0.4097,-0.4122,-0.4146,-0.4184,-0.4205,-0.4234,-0.4278,-0.4314,-0.4326,-0.4361,-0.4386,-0.4381,-0.4395,-0.4395,-0.4398,-0.4312,-0.4299,-0.4399,-0.4399,-0.4399,-0.4399,-0.4399,-0.4399,-0.4068,-0.412,-0.4122,-0.4182,-0.4193,-0.4235,-0.4251,-0.4271,-0.4288,-0.4338,-0.4367,-0.4374,-0.4392,-0.4428,-0.446,-0.4463,-0.4478,-0.4495,-0.4495,-0.4415,-0.4404,-0.4394,-0.4382,-0.4497,-0.4498,-0.4579,-0.458,-0.4581]},{"header":{"parameterUnit":"m.s-1","parameterCategory":1,"la1":30.2991,"la2":30.254,"lo1":-89.0895,"lo2":-89.0444,"dx":0.0017,"dy":0.0017,"nx":28,"ny":28,"refTime":"2022-12-16T09:00:00:Z","depth":0,"parameterNumber":3,"parameterNumberName":"V-component_of_WINDS"},"data":[0,0,0,0,0,0,0,0,0,0,0,0,0,0,0,0,0,0,0,0,0,0,0,0,0,0,0,0,0,0,0,0,0,0,0,0,0,0,0,0,0,0,0,0,0,0,0,0,0,0,0,0,0,0,0,0,0,0,-6.113,-6.1131,0,-6.1249,-6.1251,-6.1252,-6.1175,-6.1171,-6.1167,-6.1164,-6.1281,-6.1287,-6.1294,0,0,0,0,0,0,0,0,0,0,0,0,0,-6.083,-6.0836,-6.113,-6.1131,-6.1133,-6.1249,-6.1251,-6.1252,-6.1175,-6.1171,-6.1167,-6.1162,-6.1279,-6.1287,-6.1294,0,0,0,0,0,0,0,0,0,0,0,0,0,-6.0956,-6.0838,-6.113,-6.1109,-6.1108,-6.1249,-6.1251,-6.1253,-6.1176,-6.1171,-6.1165,-6.116,-6.1276,-6.1286,-6.1295,-6.1462,0,0,-6.1325,-6.1329,0,0,0,0,0,0,0,0,-6.0949,-6.0967,-6.111,-6.111,-6.111,-6.1192,-6.1188,-6.1323,-6.1177,-6.115,-6.1164,-6.1158,-6.1255,-6.1266,-6.13,-6.1468,-6.1473,-6.1326,-6.1332,-6.1336,-6.1339,0,0,0,0,0,0,0,-6.094,-6.0961,-6.1177,-6.1112,-6.1112,-6.1091,-6.1103,-6.1213,-6.1231,-6.1152,-6.1147,-6.1162,-6.1254,-6.1291,-6.1303,-6.1474,-6.1326,-6.1334,-6.134,-6.1344,-6.1784,-6.179,0,0,0,0,0,0,-6.0934,-6.0955,-6.1173,-6.118,-6.1015,-6.1101,-6.1115,-6.1171,-6.123,-6.1234,-6.1167,-6.1158,-6.1277,-6.1291,-6.1306,-6.1506,-6.1336,-6.1345,-6.135,-6.1778,-6.1785,-6.1792,0,0,0,0,0,0,-6.0928,-6.0954,-6.1168,-6.1066,-6.1092,-6.1112,-6.1176,-6.1176,-6.1213,-6.1241,-6.1243,-6.1202,-6.1274,-6.1293,-6.1424,-6.1509,-6.1349,-6.1358,-6.1771,-6.1781,-6.1789,-6.1906,0,0,0,0,0,0,-6.092,-6.0953,-6.1017,-6.1068,-6.1098,-6.1286,-6.1181,-6.1182,-6.123,-6.1221,-6.1274,-6.1278,-6.1271,-6.141,-6.1434,-6.1519,-6.1365,-6.1764,-6.1775,-6.1786,-6.1895,-6.1918,-6.1938,0,0,0,0,0,-6.0909,-6.1045,-6.1021,-6.1048,-6.118,-6.1291,-6.1308,-6.1299,-6.1238,-6.1302,-6.132,-6.1276,-6.1496,-6.1425,-6.145,-6.154,-6.1758,-6.1772,-6.1785,-6.1885,-6.1914,-6.1937,0,0,0,0,0,0,-6.1001,-6.1051,-6.1025,-6.1182,-6.1233,-6.1278,-6.1359,-6.1329,-6.1397,-6.1385,-6.1369,-6.1381,-6.1519,-6.1542,-6.1462,-6.1704,-6.1617,-6.1636,-6.1685,-6.1712,-6.1733,-6.1724,-6.1373,0,0,0,0,0,-6.104,-6.1128,-6.1166,-6.13,-6.1328,-6.134,-6.1388,-6.1376,-6.1428,-6.1449,-6.1476,-6.1527,-6.1607,-6.166,-6.1736,-6.1897,-6.1908,-6.1972,-6.1993,-6.2011,-6.2027,-6.2115,-6.2144,-6.1835,-6.1835,-6.1835,0,0,-6.112,-6.1158,-6.1215,-6.132,-6.1358,-6.1449,-6.1358,-6.1457,-6.1524,-6.1463,-6.159,-6.1612,-6.1667,-6.1815,-6.1881,-6.1838,-6.2115,-6.2028,-6.2041,-6.2049,-6.2131,-6.2161,-6.2187,-6.1844,-6.1843,-6.1841,0,0,-6.1313,-6.1351,-6.1467,-6.1508,-6.1569,-6.1575,-6.1603,-6.1654,-6.1667,-6.1794,-6.175,-6.1828,-6.1967,-6.2008,-6.2047,-6.2256,-6.2219,-6.2281,-6.2393,-6.2479,-6.2503,-6.2524,-6.2599,-6.2626,-6.2297,-6.2298,-6.2298,0,-6.1405,-6.1542,-6.153,-6.1634,-6.1681,-6.1632,-6.1749,-6.1788,-6.187,-6.1903,-6.1854,-6.2027,-6.2061,-6.2218,-6.2269,-6.2302,-6.2333,-6.2275,-6.2501,-6.2522,-6.2542,-6.2613,-6.2641,-6.2305,-6.2304,-6.2303,-6.2303,0,-6.1652,-6.1747,-6.1833,-6.1916,-6.1972,-6.2082,-6.2086,-6.2144,-6.2128,-6.2139,-6.2269,-6.2308,-6.239,-6.2426,-6.241,-6.2581,-6.2553,-6.2503,-6.2415,-6.2579,-6.2645,-6.2673,-6.2315,-6.2313,-6.2311,-6.2309,0,0,-6.1907,-6.1982,-6.2014,-6.205,-6.2113,-6.2186,-6.2292,-6.2375,-6.2426,-6.2483,-6.2571,-6.269,-6.2644,-6.2689,-6.2677,-6.2752,-6.2915,-6.2692,-6.2693,-6.2733,-6.3106,-6.3144,-6.3176,-6.289,-6.2896,-6.29,-6.3102,0,-6.2104,-6.2293,-6.2286,-6.2462,-6.2549,-6.2504,-6.2596,-6.2644,-6.2658,-6.2733,-6.2746,-6.2831,-6.2764,-6.2791,-6.2863,-6.288,-6.299,-6.2865,-6.2972,-6.2976,-6.2961,-6.3211,-6.3251,-6.344,-6.3128,-6.3132,-6.3135,0,-6.236,-6.2428,-6.2613,-6.2664,-6.27,-6.2784,-6.2859,-6.2932,-6.2985,-6.2989,-6.304,-6.3015,-6.3122,-6.3031,-6.3177,-6.3093,-6.3135,-6.315,-6.3157,-6.3168,-6.3066,-6.3228,-6.35,-6.3529,-6.3176,-6.3173,-6.317,0,-6.2528,-6.2666,-6.2795,-6.2827,-6.2889,-6.2949,-6.2977,-6.3025,-6.3075,-6.314,-6.3172,-6.3248,-6.329,-6.3348,-6.3345,-6.3279,-6.3493,-6.3402,-6.3499,-6.3499,-6.3547,-6.3544,-6.383,-6.3573,-6.3573,-6.3572,-6.3572,0,-6.275,-6.2865,-6.2872,-6.2951,-6.3078,-6.3068,-6.3194,-6.3215,-6.3258,-6.3339,-6.3303,-6.338,-6.337,-6.3447,-6.3445,-6.3566,-6.3585,-6.3591,-6.3589,-6.3595,-6.3594,-6.3623,-6.361,-6.358,-6.3578,-6.3577,-6.3576,0,-6.296,-6.2969,-6.3106,-6.3154,-6.3169,-6.3261,-6.33,-6.3375,-6.3385,-6.3489,-6.3512,-6.3528,-6.3617,-6.3619,-6.372,-6.3718,-6.3867,-6.3849,-6.385,-6.3847,-6.3944,-6.3936,-6.426,-6.4302,-6.4017,-6.402,-6.4022,0,-6.3101,-6.3189,-6.3247,-6.33,-6.3333,-6.3418,-6.347,-6.3462,-6.3517,-6.3584,-6.365,-6.3736,-6.3804,-6.3947,-6.3967,-6.4044,-6.4028,-6.4137,-6.404,-6.4043,-6.4031,-6.4026,-6.4035,-6.4156,-6.4159,-6.4162,-6.4164,0,-6.3352,-6.3352,-6.3429,-6.3508,-6.3571,-6.3632,-6.3689,-6.3734,-6.3733,-6.3796,-6.3887,-6.394,-6.4044,-6.4129,-6.4204,-6.423,-6.4198,-6.4194,-6.4221,-6.4228,-6.4225,-6.4229,-6.3903,-6.4187,-6.4185,-6.4183,-6.4182,-6.4181,-6.3532,-6.3609,-6.3662,-6.3748,-6.3791,-6.3844,-6.3917,-6.3937,-6.4014,-6.41,-6.409,-6.4191,-6.4241,-6.4338,-6.4371,-6.4449,-6.4411,-6.445,-6.446,-6.447,-6.4481,-6.4212,-6.4462,-6.4461,-6.4461,-6.446,-6.446,0,-6.3782,-6.3814,-6.3894,-6.3975,-6.4043,-6.4007,-6.4068,-6.4127,-6.4218,-6.4267,-6.4336,-6.444,-6.4523,-6.4549,-6.4628,-6.4686,-6.4673,-6.4707,-6.4703,-6.471,-6.4509,-6.4479,-6.4717,-6.4717,-6.4716,-6.4716,-6.4716,-6.4716,-6.392,-6.4047,-6.4054,-6.4201,-6.4231,-6.4332,-6.437,-6.4419,-6.4459,-6.4579,-6.4648,-6.4665,-6.4705,-6.4787,-6.486,-6.4866,-6.4897,-6.4938,-6.4937,-6.475,-6.4724,-6.4699,-6.4671,-6.4945,-6.4945,-6.5131,-6.5133,-6.5134]}]]